OV1-5 R/B, 2123

Orbit data source: Space-Track

OV1-5 R/B, 2123 is space debris in LEO originally from a launch on Wed, 30 Mar 1966 UTC launched from the Air Force Western Test Range (AFWTR). Debris objects in space refer to the collection of defunct objects orbiting the Earth. Examples of debris include non-operational satellites, rocket bodies, and fragments generated from explosions, collisions, or faulty payload assembly.

Loading next visibility...
Identifier
2123, 1966-025C
Orbit
LEO
Country
Flag of USUS
Related business
Manufacturer
ABL
Mission
Spacecraft
Bus & Motor
ALTAIR, Unknown motor
Mass
~125 kg wet, ~125 kg dry
Launch date (UTC)
1966-03-30 (59 years ago)
Launch vehicle
Unknown
Launch site
Air Force Western Test Range (AFWTR)
Object type
Payload
Rocket body
Debris
Shape & HBR
Cyl, 1.1 m
Radar Cross Section
1.347 m², Medium (>0.1 m² and < 1m²)

Expand to show TLE details & history
Last TLE update: 11 hours ago

TLE from 11 hours ago
0 OV1-5 R/B
1 02123U 66025C   25259.57430530  .00000314  00000-0  69374-4 0  9998
2 02123 144.6417  35.9325 0046565 180.4211 179.6418 13.65863576967364
Epoch: 2025-09-16T13:46Z
TLE epoch observation values (Epoch: 2025-09-16T13:46:59.977Z)
Latitude
-0.00003°
Longitude
-166.58001°
Altitude
1,047.893 km
Speed
7.313 km/s
True Right ascension
02h 23m 43s
True Declination
0° 00' 00"
Sunlit
Object was in full shadow at epoch
Visualization orbit readout
Latitude
Unknown
Longitude
Unknown
Altitude
Unknown
Speed
Unknown
Apparent Right ascension
Unknown
Apparent Declination
Unknown
Sunlit
N/A
Visualization observer readout
Local Sidereal Time
17:27:59
Azimuth
Unknown
Elevation
Unknown
Doppler factor
Unknown
Orbital elements
Apogee altitude
1,051.867 km
Perigee altitude
982.992 km
Semi-major axis
7,395.566 km
Eccentricity
0.00466
Inclination
144.6417°
RAAN
35.9325°
Arg. of periapsis
180.4211°
True anomaly
179.64512°
Mean anomaly
179.6418°
Eccentric anomaly
179.64346°
Mean motion
3.41261 °/min
Orbital period
105.49 mins
BSTAR
0.000069374
Loading maneuver chart data...
Computing Atmospheric mass density...
Loading historical data...
Loading historical data...
Loading historical data...
Loading historical data...
Loading historical data...
Loading historical data...
Loading historical data...

Documentation

Showing up to 5 results
|